Home   Weather   Dortmund   Past weeks

Flag for Germany Past Weather in Dortmund, North Rhine-Westphalia, Germany — Yesterday and Last 2 Weeks

Now
41 °F

Sunny.


Feels Like: 33 °F
Forecast: 36 / 44 °F
Wind: 14 mph from South

Location: Dortmund / Wickede

Current Time: Dec 7, 2016 at 9:46:17 am

Latest Report: Dec 7, 2016 at 8:50 am


Visibility: 10 mi

Pressure: 30.42 "Hg

Humidity: 70%

Dew Point: 32 °F

Location of DortmundLocation

Past Weather in Dortmund — Graph

°F

Dortmund Temperature Yesterday

Maximum temperature yesterday: 41 °F (at 12:50 pm)
Minimum temperature yesterday: 27 °F (at 5:20 am)
Average temperature yesterday: 33 °F

High & Low Weather Summary for the Past Weeks

 TemperatureHumidityPressure
High54 °F (Nov 22, 10:50 am)93% (Nov 24, 5:20 am)30.57 "Hg (Nov 24, 5:20 am)
Low21 °F (Nov 29, 6:50 am)41% (Nov 30, 12:20 pm)29.74 "Hg (Nov 22, 8:20 am)
Average37 °F77%30.24 "Hg
* Reported Nov 22 8:20 am — Dec 7 8:20 am, Dortmund, Weather by CustomWeather, © 2016

Note: Actual official high and low records may vary slightly from our data, if they occured in-between our weather recording intervals... More about our weather records

Advertising

Dortmund Weather History for the Previous 24 Hours

Scroll right to see more
 ConditionsComfort  
Time TempWeatherWind HumidityBarometerVisibility
8:20 am
Wed, Dec 7
41 °FClear.13 mph70%30.39 "Hg10 mi
7:50 am37 °FClear.12 mph75%30.42 "Hg10 mi
7:20 am37 °FClear.13 mph75%30.39 "Hg10 mi
6:50 am37 °FClear.13 mph75%30.42 "Hg10 mi
6:20 am36 °FClear.12 mph81%30.42 "Hg10 mi
5:50 am36 °FClear.12 mph81%30.42 "Hg10 mi
5:20 am36 °FClear.12 mph81%30.42 "Hg10 mi
10:20 pm
Tue, Dec 6
30 °FChilly.5 mph86%30.45 "HgN/A
9:50 pm32 °FClear.1 mph87%30.45 "Hg10 mi
9:20 pm32 °FClear.7 mph87%30.45 "Hg10 mi
8:50 pm32 °FClear.No wind87%30.45 "Hg10 mi
8:20 pm32 °FClear.5 mph87%30.45 "Hg10 mi
7:50 pm32 °FClear.2 mph87%30.45 "Hg10 mi
6:50 pm34 °FClear.9 mph87%30.42 "Hg10 mi
6:20 pm34 °FClear.7 mph81%30.42 "Hg10 mi
5:50 pm32 °FClear.7 mph87%30.42 "Hg10 mi
5:20 pm34 °FClear.6 mph87%30.45 "Hg10 mi
4:50 pm34 °FClear.2 mph81%30.45 "Hg10 mi
4:20 pm36 °FSunny.3 mph75%30.45 "Hg10 mi
3:50 pm37 °FSunny.3 mph70%30.42 "Hg10 mi
3:20 pm37 °FSunny.2 mph70%30.42 "Hg10 mi
2:50 pm39 °FSunny.2 mph70%30.42 "Hg10 mi
2:20 pm39 °FSunny.2 mph70%30.42 "Hg10 mi
1:50 pm39 °FSunny.5 mph70%30.42 "Hg10 mi
1:20 pm41 °FSunny.No wind66%30.42 "Hg10 mi
12:50 pm41 °FSunny.1 mph66%30.42 "Hg10 mi
12:20 pm37 °FSunny.No wind75%30.42 "Hg10 mi
11:50 am37 °FSunny.1 mph75%30.42 "Hg10 mi
11:20 am34 °FSunny.7 mph81%30.42 "Hg10 mi
10:50 am32 °FPassing clouds.5 mph80%30.42 "HgN/A
10:20 am30 °FPassing clouds.5 mph86%30.42 "HgN/A
9:50 am30 °FSunny.5 mph80%30.42 "Hg10 mi
9:20 am28 °FSunny.7 mph86%30.39 "Hg10 mi
Weather by CustomWeather, © 2016

See weather overviewHow to use our weather pages